Flag for Sweden Weather past 2 weeks in Malmö, Sweden

Now
63 °F

Sunny.


Feels Like: 63 °F
Forecast: 56 / 63 °F
Wind: 17 mph from Southwest

Location: Malmo / Sturup

Current Time: Aug 22, 2014 at 6:53:03 PM

Latest Report: Aug 22, 2014 at 6:20 PM


Visibility: 10 mi

Pressure: 29.77 "Hg

Humidity: 59%

Dew point: 48 °F

Location of MalmöLocation

Historic Weather in Malmö — Graph

°F

Malmö temperature yesterday

Maximum temperature yesterday: 63 °F (at 1:20 PM)
Minimum temperature yesterday: 52 °F (at 3:50 AM)
Average temperature yesterday: 57 °F

Past Weeks' High & Low Weather Summary

 TemperatureHumidityPressure
High75 °F (Aug 7, 5:20 PM)100% (Aug 8, 4:20 AM)29.98 "Hg (Aug 8, 4:20 AM)
Low48 °F (Aug 22, 4:20 AM)41% (Aug 7, 5:20 PM)29.39 "Hg (Aug 18, 11:50 AM)
Average61 °F76%29.73 "Hg
* Reported Aug 7 5:20 PM — Aug 22 5:50 PM, Malmö, Weather by CustomWeather, © 2014

Note: Actual official high and low records may vary slightly from our data, if they occured in-between our weather recording intervals... More about our weather records

Advertising

Malmö weather history for previous 24 hours

 ConditionsComfort  
Time TempWeatherWind HumidityBarometerVisibility
5:50 PM
Aug 22
63 °FSunny.17 mph59%29.77 "Hg10 mi
5:20 PM63 °FScattered clouds.21 mph59%29.77 "HgN/A
4:50 PM63 °FPartly sunny.20 mph59%29.77 "HgN/A
4:20 PM63 °FBroken clouds.21 mph59%29.80 "HgN/A
3:50 PM63 °FBroken clouds.21 mph64%29.80 "HgN/A
3:20 PM64 °FScattered clouds.21 mph60%29.80 "HgN/A
2:50 PM63 °FPartly sunny.20 mph64%29.80 "HgN/A
2:20 PM63 °FScattered clouds.20 mph59%29.80 "HgN/A
1:50 PM63 °FPassing clouds.20 mph64%29.80 "HgN/A
1:20 PM64 °FScattered clouds.20 mph60%29.80 "HgN/A
12:50 PM61 °FScattered clouds.18 mph72%29.80 "HgN/A
12:20 PM63 °FBroken clouds.18 mph68%29.80 "HgN/A
11:50 AM63 °FSunny.17 mph64%29.80 "Hg10 mi
11:20 AM61 °FSunny.16 mph68%29.83 "Hg10 mi
10:50 AM59 °FSunny.12 mph72%29.83 "Hg10 mi
10:20 AM59 °FPassing clouds.15 mph72%29.83 "HgN/A
9:50 AM59 °FScattered clouds.13 mph77%29.83 "HgN/A
9:20 AM59 °FPassing clouds.9 mph82%29.83 "HgN/A
8:50 AM59 °FPassing clouds.7 mph82%29.83 "HgN/A
8:20 AM57 °FScattered clouds.6 mph88%29.83 "HgN/A
7:50 AM55 °FPassing clouds.5 mph88%29.83 "HgN/A
7:20 AM52 °FPassing clouds.6 mph94%29.83 "HgN/A
6:50 AM52 °FClear.5 mph94%29.83 "Hg10 mi
6:20 AM54 °FClear.6 mph88%29.83 "Hg10 mi
5:50 AM50 °FClear.6 mph100%29.83 "Hg10 mi
5:20 AM50 °FClear.5 mph94%29.86 "Hg10 mi
4:20 AM48 °FClear.6 mph94%29.86 "Hg10 mi
3:50 AM50 °FClear.5 mph94%29.86 "Hg10 mi
3:20 AM52 °FClear.5 mph88%29.86 "Hg10 mi
2:50 AM54 °FPassing clouds.7 mph88%29.89 "HgN/A
2:20 AM54 °FPassing clouds.6 mph88%29.89 "HgN/A
1:50 AM54 °FPassing clouds.7 mph82%29.89 "HgN/A
1:20 AM54 °FPassing clouds.8 mph82%29.89 "HgN/A
12:50 AM54 °FPassing clouds.8 mph77%29.89 "HgN/A
12:20 AM54 °FPassing clouds.7 mph77%29.89 "HgN/A
11:50 PM
Aug 21
54 °FClear.7 mph77%29.89 "Hg10 mi
11:20 PM54 °FClear.9 mph77%29.89 "Hg10 mi
10:50 PM54 °FClear.9 mph77%29.89 "Hg10 mi
10:20 PM54 °FClear.7 mph77%29.89 "Hg10 mi
9:50 PM54 °FClear.8 mph77%29.89 "Hg10 mi
9:20 PM55 °FSunny.9 mph72%29.89 "Hg10 mi
8:50 PM55 °FSunny.10 mph77%29.89 "Hg10 mi
8:20 PM57 °FScattered clouds.14 mph72%29.89 "HgN/A
7:50 PM57 °FSunny.10 mph72%29.89 "Hg10 mi
7:20 PM59 °FSunny.14 mph68%29.86 "Hg10 mi
6:50 PM59 °FSunny.15 mph63%29.86 "Hg10 mi
6:20 PM59 °FSunny.15 mph59%29.86 "Hg10 mi
Weather by CustomWeather, © 2014

See weather overviewHow to use our weather pages